Time,TemperatureF,DewpointF,PressureIn,WindDirection,WindDirectionDegrees,WindSpeedMPH,WindSpeedGustMPH,Humidity,HourlyPrecipIn,Conditions,Clouds,dailyrainin,SoftwareType,DateUTC
2013-06-15 00:00:00,81.3,68.4,28.05,North,0,0.0,0.0,65,0.00,00:00,,0.00,WeatherDisplay:WD co,2013-06-14 21:00:00,
2013-06-15 00:05:00,81.3,68.4,28.05,North,0,0.0,0.0,65,0.00,00:05,,0.00,WeatherDisplay:WD co,2013-06-14 21:05:00,
2013-06-15 00:10:00,81.3,68.4,28.05,North,0,0.0,0.0,65,0.00,00:10,,0.00,WeatherDisplay:WD co,2013-06-14 21:10:00,
2013-06-15 00:15:00,81.3,68.4,28.05,North,0,0.0,0.0,65,0.00,00:15,,0.00,WeatherDisplay:WD co,2013-06-14 21:15:00,
2013-06-15 00:20:00,81.3,68.4,28.05,North,0,0.0,0.0,65,0.00,00:20,,0.00,WeatherDisplay:WD co,2013-06-14 21:20:00,
2013-06-15 00:25:00,81.3,68.4,28.05,North,0,0.0,0.0,65,0.00,00:25,,0.00,WeatherDisplay:WD co,2013-06-14 21:25:00,
2013-06-15 00:30:00,81.3,68.4,28.05,North,0,0.0,0.0,65,0.00,00:30,,0.00,WeatherDisplay:WD co,2013-06-14 21:30:00,
2013-06-15 00:35:00,81.3,68.4,28.05,North,0,0.0,0.0,65,0.00,00:35,,0.00,WeatherDisplay:WD co,2013-06-14 21:35:00,
2013-06-15 00:40:00,81.3,68.4,28.05,North,0,0.0,0.0,65,0.00,00:40,,0.00,WeatherDisplay:WD co,2013-06-14 21:40:00,
2013-06-15 00:50:00,81.3,68.4,28.05,North,0,0.0,0.0,65,0.00,00:50,,0.00,WeatherDisplay:WD co,2013-06-14 21:50:00,
2013-06-15 00:55:00,81.3,68.4,28.05,North,0,0.0,0.0,65,0.00,00:55,,0.00,WeatherDisplay:WD co,2013-06-14 21:55:00,
2013-06-15 01:00:00,81.3,68.4,28.05,North,0,0.0,0.0,65,0.00,00:55,,0.00,WeatherDisplay:WD co,2013-06-14 22:00:00,
2013-06-15 01:05:00,81.3,68.4,28.05,North,0,0.0,0.0,65,0.00,01:05,,0.00,WeatherDisplay:WD co,2013-06-14 22:05:00,
2013-06-15 01:15:00,81.3,68.4,28.05,North,0,0.0,0.0,65,0.00,01:15,,0.00,WeatherDisplay:WD co,2013-06-14 22:15:00,
2013-06-15 01:20:00,81.3,68.4,28.05,North,0,0.0,0.0,65,0.00,01:20,,0.00,WeatherDisplay:WD co,2013-06-14 22:20:00,
2013-06-15 01:25:00,81.3,68.4,28.05,North,0,0.0,0.0,65,0.00,01:25,,0.00,WeatherDisplay:WD co,2013-06-14 22:25:00,
2013-06-15 01:30:00,81.3,68.4,28.05,North,0,0.0,0.0,65,0.00,01:30,,0.00,WeatherDisplay:WD co,2013-06-14 22:30:00,
2013-06-15 01:40:00,81.3,68.4,28.05,North,0,0.0,0.0,65,0.00,01:40,,0.00,WeatherDisplay:WD co,2013-06-14 22:40:00,
2013-06-15 01:45:00,81.3,68.4,28.05,North,0,0.0,0.0,65,0.00,01:45,,0.00,WeatherDisplay:WD co,2013-06-14 22:45:00,
2013-06-15 01:50:00,81.3,68.4,28.05,North,0,0.0,0.0,65,0.00,01:50,,0.00,WeatherDisplay:WD co,2013-06-14 22:50:00,
2013-06-15 01:55:00,81.3,68.4,28.05,North,0,0.0,0.0,65,0.00,01:55,,0.00,WeatherDisplay:WD co,2013-06-14 22:55:00,
2013-06-15 02:00:00,81.3,68.4,28.05,North,0,0.0,0.0,65,0.00,02:00,,0.00,WeatherDisplay:WD co,2013-06-14 23:00:00,
2013-06-15 02:05:00,81.3,68.4,28.05,North,0,0.0,0.0,65,0.00,02:05,,0.00,WeatherDisplay:WD co,2013-06-14 23:05:00,
2013-06-15 02:10:00,81.3,68.4,28.05,North,0,0.0,0.0,65,0.00,02:10,,0.00,WeatherDisplay:WD co,2013-06-14 23:10:00,
2013-06-15 02:30:00,71.6,65.1,28.07,NNE,22,0.0,0.0,80,0.00,02:30,,0.00,WeatherDisplay:WD co,2013-06-14 23:30:00,
2013-06-15 02:35:00,71.6,65.5,28.08,NE,36,0.0,0.0,81,0.00,02:35,,0.00,WeatherDisplay:WD co,2013-06-14 23:35:00,
2013-06-15 02:45:00,71.6,65.8,28.08,NE,43,0.0,2.0,82,0.00,02:45,,0.00,WeatherDisplay:WD co,2013-06-14 23:45:00,
2013-06-15 02:50:00,71.6,66.2,28.08,NNE,28,1.0,3.0,83,0.00,02:50,,0.00,WeatherDisplay:WD co,2013-06-14 23:50:00,
2013-06-15 03:00:00,71.6,66.2,28.08,NE,37,0.0,4.0,83,0.00,02:55,,0.00,WeatherDisplay:WD co,2013-06-15 00:00:00,
2013-06-15 03:05:00,71.4,66.0,28.08,NNE,25,0.0,0.0,83,0.00,03:00,,0.00,WeatherDisplay:WD co,2013-06-15 00:05:00,
2013-06-15 03:15:00,70.9,65.5,28.08,ESE,118,0.0,0.0,83,0.00,03:15,,0.00,WeatherDisplay:WD co,2013-06-15 00:15:00,
2013-06-15 03:20:00,70.9,65.5,28.08,NNE,22,0.0,0.0,83,0.00,03:20,,0.00,WeatherDisplay:WD co,2013-06-15 00:20:00,
2013-06-15 03:35:00,70.7,65.6,28.08,NE,52,0.0,0.0,84,0.00,03:35,,0.00,WeatherDisplay:WD co,2013-06-15 00:35:00,
2013-06-15 03:40:00,70.7,65.6,28.08,NNE,16,0.0,0.0,84,0.00,03:40,,0.00,WeatherDisplay:WD co,2013-06-15 00:40:00,
2013-06-15 03:50:00,70.5,65.8,28.08,NNE,25,0.0,0.0,85,0.00,03:50,,0.00,WeatherDisplay:WD co,2013-06-15 00:50:00,
2013-06-15 03:55:00,70.5,65.8,28.08,NNE,15,0.0,0.0,85,0.00,03:55,,0.00,WeatherDisplay:WD co,2013-06-15 00:55:00,
2013-06-15 04:00:00,70.5,65.8,28.08,NNE,15,0.0,0.0,85,0.00,03:55,,0.00,WeatherDisplay:WD co,2013-06-15 01:00:00,
2013-06-15 04:05:00,70.5,65.8,28.08,NE,37,0.0,0.0,85,0.00,04:05,,0.00,WeatherDisplay:WD co,2013-06-15 01:05:00,
2013-06-15 04:10:00,70.5,65.8,28.08,NE,41,0.0,0.0,85,0.00,04:10,,0.00,WeatherDisplay:WD co,2013-06-15 01:10:00,
2013-06-15 04:15:00,70.3,65.6,28.08,NE,51,0.0,0.0,85,0.00,04:15,,0.00,WeatherDisplay:WD co,2013-06-15 01:15:00,
2013-06-15 04:20:00,70.3,66.0,28.07,NE,34,0.0,0.0,86,0.00,04:20,,0.00,WeatherDisplay:WD co,2013-06-15 01:20:00,
2013-06-15 04:30:00,70.3,66.0,28.08,NE,49,0.0,0.0,86,0.00,04:30,,0.00,WeatherDisplay:WD co,2013-06-15 01:30:00,
2013-06-15 04:35:00,70.2,65.8,28.07,NE,45,0.0,0.0,86,0.00,04:35,,0.00,WeatherDisplay:WD co,2013-06-15 01:35:00,
2013-06-15 04:40:00,70.2,65.8,28.07,NNE,28,0.0,3.0,86,0.00,04:40,,0.00,WeatherDisplay:WD co,2013-06-15 01:40:00,
2013-06-15 04:45:00,70.2,65.8,28.07,NNE,28,0.0,3.0,86,0.00,04:40,,0.00,WeatherDisplay:WD co,2013-06-15 01:45:00,
2013-06-15 04:55:00,70.2,65.8,28.08,NE,41,0.0,0.0,86,0.00,04:55,,0.00,WeatherDisplay:WD co,2013-06-15 01:55:00,
2013-06-15 05:00:00,70.0,65.6,28.08,NE,41,0.0,4.0,86,0.00,05:00,,0.00,WeatherDisplay:WD co,2013-06-15 02:00:00,
2013-06-15 05:05:00,70.0,65.6,28.08,NE,40,0.0,4.0,86,0.00,05:05,,0.00,WeatherDisplay:WD co,2013-06-15 02:05:00,
2013-06-15 05:15:00,70.0,65.6,28.08,North,3,0.0,0.0,86,0.00,05:15,,0.00,WeatherDisplay:WD co,2013-06-15 02:15:00,
2013-06-15 05:20:00,69.6,65.2,28.08,North,355,0.0,0.0,86,0.00,05:20,,0.00,WeatherDisplay:WD co,2013-06-15 02:20:00,
2013-06-15 05:25:00,69.6,65.2,28.08,NNE,13,0.0,2.0,86,0.00,05:25,,0.00,WeatherDisplay:WD co,2013-06-15 02:25:00,
2013-06-15 05:35:00,69.6,65.2,28.08,NNE,15,0.0,1.0,86,0.00,05:35,,0.00,WeatherDisplay:WD co,2013-06-15 02:35:00,
2013-06-15 05:40:00,69.6,65.2,28.07,NNE,28,0.0,0.0,86,0.00,05:40,,0.00,WeatherDisplay:WD co,2013-06-15 02:40:00,
2013-06-15 05:45:00,69.6,65.2,28.07,ENE,66,0.0,0.0,86,0.00,05:45,,0.00,WeatherDisplay:WD co,2013-06-15 02:45:00,
2013-06-15 05:50:00,69.6,65.2,28.07,NE,48,0.0,0.0,86,0.00,05:50,,0.00,WeatherDisplay:WD co,2013-06-15 02:50:00,
2013-06-15 05:55:00,69.6,65.2,28.07,NE,42,0.0,2.0,86,0.00,05:55,,0.00,WeatherDisplay:WD co,2013-06-15 02:55:00,
2013-06-15 06:00:00,69.6,65.2,28.07,NE,55,0.0,0.0,86,0.00,06:00,,0.00,WeatherDisplay:WD co,2013-06-15 03:00:00,
2013-06-15 06:10:00,69.4,65.1,28.07,NNE,19,0.0,0.0,86,0.00,06:10,,0.00,WeatherDisplay:WD co,2013-06-15 03:10:00,
2013-06-15 06:15:00,69.6,65.2,28.07,North,11,0.0,0.0,86,0.00,06:15,,0.00,WeatherDisplay:WD co,2013-06-15 03:15:00,
2013-06-15 06:20:00,69.6,65.2,28.08,NNE,20,0.0,0.0,86,0.00,06:20,,0.00,WeatherDisplay:WD co,2013-06-15 03:20:00,
2013-06-15 06:25:00,69.6,65.2,28.08,NNE,27,0.0,0.0,86,0.00,06:25,,0.00,WeatherDisplay:WD co,2013-06-15 03:25:00,
2013-06-15 06:35:00,69.8,65.4,28.08,NE,45,0.0,0.0,86,0.00,06:30,,0.00,WeatherDisplay:WD co,2013-06-15 03:35:00,
2013-06-15 06:40:00,70.0,65.6,28.08,NNE,31,0.0,0.0,86,0.00,06:40,,0.00,WeatherDisplay:WD co,2013-06-15 03:40:00,
2013-06-15 06:45:00,70.2,65.8,28.08,NNE,31,0.0,0.0,86,0.00,06:45,,0.00,WeatherDisplay:WD co,2013-06-15 03:45:00,
2013-06-15 06:55:00,70.5,65.8,28.08,NE,45,0.0,0.0,85,0.00,06:55,,0.00,WeatherDisplay:WD co,2013-06-15 03:55:00,
2013-06-15 07:10:00,72.9,67.4,28.08,NE,49,0.0,0.0,83,0.00,07:10,,0.00,WeatherDisplay:WD co,2013-06-15 04:10:00,
2013-06-15 07:15:00,72.9,67.4,28.08,NE,49,0.0,0.0,83,0.00,07:10,,0.00,WeatherDisplay:WD co,2013-06-15 04:15:00,
2013-06-15 07:20:00,74.3,68.1,28.08,NE,52,0.0,0.0,81,0.00,07:15,,0.00,WeatherDisplay:WD co,2013-06-15 04:20:00,
2013-06-15 07:25:00,77.9,70.1,28.09,NE,54,0.0,0.0,77,0.00,07:25,,0.00,WeatherDisplay:WD co,2013-06-15 04:25:00,
2013-06-15 07:30:00,79.5,70.5,28.08,NE,45,0.0,0.0,74,0.00,07:30,,0.00,WeatherDisplay:WD co,2013-06-15 04:30:00,
2013-06-15 07:40:00,81.5,70.8,28.08,ENE,68,0.0,0.0,70,0.00,07:40,,0.00,WeatherDisplay:WD co,2013-06-15 04:40:00,
2013-06-15 07:45:00,81.7,70.1,28.08,ENE,58,0.0,0.0,68,0.00,07:45,,0.00,WeatherDisplay:WD co,2013-06-15 04:45:00,
2013-06-15 07:50:00,82.8,70.7,28.08,NE,38,0.0,0.0,67,0.00,07:50,,0.00,WeatherDisplay:WD co,2013-06-15 04:50:00,
2013-06-15 07:55:00,82.9,70.4,28.09,NE,53,0.0,0.0,66,0.00,07:55,,0.00,WeatherDisplay:WD co,2013-06-15 04:55:00,
2013-06-15 08:00:00,83.7,71.1,28.09,NE,56,0.0,0.0,66,0.00,08:00,,0.00,WeatherDisplay:WD co,2013-06-15 05:00:00,
2013-06-15 08:05:00,85.5,72.3,28.09,NE,40,0.0,0.0,65,0.00,08:05,,0.00,WeatherDisplay:WD co,2013-06-15 05:05:00,
2013-06-15 08:10:00,86.0,71.9,28.09,NE,45,0.0,0.0,63,0.00,08:10,,0.00,WeatherDisplay:WD co,2013-06-15 05:10:00,
2013-06-15 08:15:00,86.5,72.0,28.09,NE,45,0.0,0.0,62,0.00,08:15,,0.00,WeatherDisplay:WD co,2013-06-15 05:15:00,
2013-06-15 08:20:00,88.0,72.4,28.09,NE,45,0.0,0.0,60,0.00,08:20,,0.00,WeatherDisplay:WD co,2013-06-15 05:20:00,
2013-06-15 08:30:00,89.2,72.5,28.09,ENE,60,0.0,0.0,58,0.00,08:30,,0.00,WeatherDisplay:WD co,2013-06-15 05:30:00,
2013-06-15 08:40:00,92.3,73.8,28.09,West,259,0.0,0.0,55,0.00,08:40,,0.00,WeatherDisplay:WD co,2013-06-15 05:40:00,
2013-06-15 08:45:00,92.8,73.2,28.09,NW,316,0.0,0.0,53,0.00,08:45,,0.00,WeatherDisplay:WD co,2013-06-15 05:45:00,
2013-06-15 08:55:00,88.9,71.7,28.09,NE,54,0.0,0.0,57,0.00,08:55,,0.00,WeatherDisplay:WD co,2013-06-15 05:55:00,
2013-06-15 09:00:00,88.9,71.7,28.10,ENE,68,0.0,0.0,57,0.00,09:00,,0.00,WeatherDisplay:WD co,2013-06-15 06:00:00,
2013-06-15 09:05:00,90.0,72.2,28.09,NE,54,0.0,0.0,56,0.00,09:05,,0.00,WeatherDisplay:WD co,2013-06-15 06:05:00,
2013-06-15 09:10:00,90.3,72.5,28.10,NNE,33,0.0,0.0,56,0.00,09:10,,0.00,WeatherDisplay:WD co,2013-06-15 06:10:00,
2013-06-15 09:20:00,89.8,72.5,28.10,ENE,58,0.0,0.0,57,0.00,09:20,,0.00,WeatherDisplay:WD co,2013-06-15 06:20:00,
2013-06-15 09:30:00,90.1,72.8,28.10,NE,35,0.0,2.0,57,0.00,09:30,,0.00,WeatherDisplay:WD co,2013-06-15 06:30:00,
2013-06-15 09:35:00,90.0,72.7,28.10,NE,42,0.0,0.0,57,0.00,09:35,,0.00,WeatherDisplay:WD co,2013-06-15 06:35:00,
2013-06-15 09:40:00,90.5,73.7,28.10,NE,44,0.0,0.0,58,0.00,09:40,,0.00,WeatherDisplay:WD co,2013-06-15 06:40:00,
2013-06-15 09:45:00,91.6,74.7,28.10,NW,307,1.0,3.0,58,0.00,09:45,,0.00,WeatherDisplay:WD co,2013-06-15 06:45:00,
2013-06-15 09:50:00,91.2,75.4,28.10,WSW,257,0.0,2.0,60,0.00,09:50,,0.00,WeatherDisplay:WD co,2013-06-15 06:50:00,
2013-06-15 09:55:00,91.0,75.7,28.10,SSW,193,0.0,3.0,61,0.00,09:55,,0.00,WeatherDisplay:WD co,2013-06-15 06:55:00,
2013-06-15 10:00:00,91.4,76.1,28.10,ENE,73,0.0,2.0,61,0.00,10:00,,0.00,WeatherDisplay:WD co,2013-06-15 07:00:00,
2013-06-15 10:05:00,90.7,74.9,28.10,ESE,113,0.0,3.0,60,0.00,10:05,,0.00,WeatherDisplay:WD co,2013-06-15 07:05:00,
2013-06-15 10:10:00,90.0,75.2,28.10,East,96,1.0,4.0,62,0.00,10:10,,0.00,WeatherDisplay:WD co,2013-06-15 07:10:00,
2013-06-15 10:20:00,89.2,75.9,28.10,NNE,30,1.0,3.0,65,0.00,10:20,,0.00,WeatherDisplay:WD co,2013-06-15 07:20:00,
2013-06-15 10:30:00,90.0,74.7,28.10,NNW,333,0.0,4.0,61,0.00,10:30,,0.00,WeatherDisplay:WD co,2013-06-15 07:30:00,
2013-06-15 10:40:00,90.1,74.9,28.10,NW,310,0.0,4.0,61,0.00,10:40,,0.00,WeatherDisplay:WD co,2013-06-15 07:40:00,
2013-06-15 10:45:00,90.3,75.5,28.10,NNE,20,0.0,3.0,62,0.00,10:45,,0.00,WeatherDisplay:WD co,2013-06-15 07:45:00,
2013-06-15 10:50:00,90.7,74.9,28.10,NNE,16,0.0,4.0,60,0.00,10:50,,0.00,WeatherDisplay:WD co,2013-06-15 07:50:00,
2013-06-15 10:55:00,90.9,75.5,28.10,North,0,0.0,2.0,61,0.00,10:55,,0.00,WeatherDisplay:WD co,2013-06-15 07:55:00,
2013-06-15 11:10:00,89.4,76.1,28.10,NNE,33,0.0,2.0,65,0.00,11:10,,0.00,WeatherDisplay:WD co,2013-06-15 08:10:00,
2013-06-15 11:15:00,89.6,75.8,28.10,NE,46,1.0,4.0,64,0.00,11:15,,0.00,WeatherDisplay:WD co,2013-06-15 08:15:00,
2013-06-15 11:20:00,89.8,76.4,28.10,North,356,0.0,4.0,65,0.00,11:20,,0.00,WeatherDisplay:WD co,2013-06-15 08:20:00,
2013-06-15 11:25:00,90.3,75.5,28.10,NW,318,1.0,4.0,62,0.00,11:25,,0.00,WeatherDisplay:WD co,2013-06-15 08:25:00,
2013-06-15 11:30:00,89.8,75.0,28.10,NNE,17,1.0,4.0,62,0.00,11:30,,0.00,WeatherDisplay:WD co,2013-06-15 08:30:00,
2013-06-15 11:35:00,90.0,75.2,28.10,North,6,0.0,2.0,62,0.00,11:35,,0.00,WeatherDisplay:WD co,2013-06-15 08:35:00,
2013-06-15 11:40:00,90.7,75.9,28.10,NW,309,0.0,3.0,62,0.00,11:40,,0.00,WeatherDisplay:WD co,2013-06-15 08:40:00,
2013-06-15 11:45:00,90.5,75.2,28.09,West,270,1.0,4.0,61,0.00,11:45,,0.00,WeatherDisplay:WD co,2013-06-15 08:45:00,
2013-06-15 11:50:00,90.9,76.0,28.09,North,9,0.0,3.0,62,0.00,11:50,,0.00,WeatherDisplay:WD co,2013-06-15 08:50:00,
2013-06-15 11:55:00,91.2,75.9,28.10,North,11,0.0,4.0,61,0.00,11:55,,0.00,WeatherDisplay:WD co,2013-06-15 08:55:00,
2013-06-15 12:00:00,91.2,75.9,28.10,NE,51,1.0,4.0,61,0.00,12:00,,0.00,WeatherDisplay:WD co,2013-06-15 09:00:00,
2013-06-15 12:05:00,90.5,75.7,28.09,NE,52,0.0,3.0,62,0.00,12:05,,0.00,WeatherDisplay:WD co,2013-06-15 09:05:00,
2013-06-15 12:10:00,90.3,76.5,28.09,ENE,67,0.0,4.0,64,0.00,12:10,,0.00,WeatherDisplay:WD co,2013-06-15 09:10:00,
2013-06-15 12:15:00,90.9,75.5,28.09,NW,323,1.0,3.0,61,0.00,12:15,,0.00,WeatherDisplay:WD co,2013-06-15 09:15:00,
2013-06-15 12:20:00,90.7,76.8,28.09,North,11,1.0,3.0,64,0.00,12:20,,0.00,WeatherDisplay:WD co,2013-06-15 09:20:00,
2013-06-15 12:25:00,89.8,75.5,28.09,NE,53,1.0,4.0,63,0.00,12:25,,0.00,WeatherDisplay:WD co,2013-06-15 09:25:00,
2013-06-15 12:40:00,87.6,75.7,28.09,North,0,1.0,3.0,68,0.00,12:40,,0.00,WeatherDisplay:WD co,2013-06-15 09:40:00,
2013-06-15 12:45:00,87.8,75.9,28.09,North,5,0.0,3.0,68,0.00,12:45,,0.00,WeatherDisplay:WD co,2013-06-15 09:45:00,
2013-06-15 12:55:00,86.5,74.3,28.09,NE,45,1.0,4.0,67,0.00,12:55,,0.00,WeatherDisplay:WD co,2013-06-15 09:55:00,
2013-06-15 13:00:00,85.5,74.1,28.09,East,94,0.0,4.0,69,0.00,13:00,,0.00,WeatherDisplay:WD co,2013-06-15 10:00:00,
2013-06-15 13:10:00,87.1,77.0,28.09,SE,132,0.0,3.0,72,0.00,13:10,,0.00,WeatherDisplay:WD co,2013-06-15 10:10:00,
2013-06-15 13:15:00,87.1,76.1,28.09,ENE,57,1.0,3.0,70,0.00,13:15,,0.00,WeatherDisplay:WD co,2013-06-15 10:15:00,
2013-06-15 13:20:00,86.4,75.8,28.09,NE,49,0.0,2.0,71,0.00,13:20,,0.00,WeatherDisplay:WD co,2013-06-15 10:20:00,
2013-06-15 13:25:00,85.3,75.2,28.09,NE,36,0.0,2.0,72,0.00,13:25,,0.00,WeatherDisplay:WD co,2013-06-15 10:25:00,
2013-06-15 13:35:00,84.0,74.4,28.10,NE,47,0.0,0.0,73,0.00,13:30,,0.00,WeatherDisplay:WD co,2013-06-15 10:35:00,
2013-06-15 13:40:00,82.6,74.6,28.09,ENE,63,1.0,3.0,77,0.00,13:40,,0.00,WeatherDisplay:WD co,2013-06-15 10:40:00,
2013-06-15 13:45:00,82.9,74.6,28.09,ENE,63,0.0,2.0,76,0.00,13:45,,0.00,WeatherDisplay:WD co,2013-06-15 10:45:00,
2013-06-15 13:50:00,83.8,75.1,28.09,NNE,32,0.0,3.0,75,0.00,13:50,,0.00,WeatherDisplay:WD co,2013-06-15 10:50:00,
2013-06-15 13:55:00,84.9,74.9,28.09,East,94,0.0,4.0,72,0.00,13:55,,0.00,WeatherDisplay:WD co,2013-06-15 10:55:00,
2013-06-15 14:00:00,84.9,74.9,28.09,East,94,0.0,4.0,72,0.00,13:55,,0.00,WeatherDisplay:WD co,2013-06-15 11:00:00,
2013-06-15 14:05:00,86.9,74.6,28.09,NE,37,0.0,2.0,67,0.00,14:05,,0.00,WeatherDisplay:WD co,2013-06-15 11:05:00,
2013-06-15 14:15:00,88.3,76.9,28.08,ENE,72,0.0,4.0,69,0.00,14:15,,0.00,WeatherDisplay:WD co,2013-06-15 11:15:00,
2013-06-15 14:20:00,88.5,77.5,28.08,East,87,1.0,3.0,70,0.00,14:20,,0.00,WeatherDisplay:WD co,2013-06-15 11:20:00,
2013-06-15 14:30:00,88.3,76.0,28.07,East,100,1.0,4.0,67,0.00,14:30,,0.00,WeatherDisplay:WD co,2013-06-15 11:30:00,
2013-06-15 14:35:00,88.5,75.7,28.08,ENE,64,1.0,3.0,66,0.00,14:35,,0.00,WeatherDisplay:WD co,2013-06-15 11:35:00,
2013-06-15 14:40:00,90.0,76.1,28.07,NNE,33,0.0,3.0,64,0.00,14:40,,0.00,WeatherDisplay:WD co,2013-06-15 11:40:00,
2013-06-15 14:45:00,91.0,76.7,28.08,North,354,1.0,3.0,63,0.00,14:45,,0.00,WeatherDisplay:WD co,2013-06-15 11:45:00,
2013-06-15 14:50:00,90.1,74.9,28.07,NNE,25,1.0,4.0,61,0.00,14:50,,0.00,WeatherDisplay:WD co,2013-06-15 11:50:00,
2013-06-15 14:55:00,89.6,75.8,28.07,ENE,63,0.0,5.0,64,0.00,14:55,,0.00,WeatherDisplay:WD co,2013-06-15 11:55:00,
2013-06-15 15:00:00,90.5,77.1,28.07,NE,38,2.0,5.0,65,0.00,15:00,,0.00,WeatherDisplay:WD co,2013-06-15 12:00:00,
2013-06-15 15:10:00,91.0,77.6,28.07,ENE,62,1.0,3.0,65,0.00,15:10,,0.00,WeatherDisplay:WD co,2013-06-15 12:10:00,
2013-06-15 15:15:00,91.0,77.6,28.07,ENE,62,1.0,3.0,65,0.00,15:10,,0.00,WeatherDisplay:WD co,2013-06-15 12:15:00,
2013-06-15 15:35:00,90.9,77.9,28.07,North,10,1.0,3.0,66,0.00,15:35,,0.00,WeatherDisplay:WD co,2013-06-15 12:35:00,
2013-06-15 15:45:00,90.1,77.2,28.06,NNE,25,0.0,4.0,66,0.00,15:45,,0.00,WeatherDisplay:WD co,2013-06-15 12:45:00,
2013-06-15 15:50:00,90.7,76.8,28.06,NE,51,0.0,3.0,64,0.00,15:50,,0.00,WeatherDisplay:WD co,2013-06-15 12:50:00,
2013-06-15 15:55:00,90.3,77.4,28.06,NE,37,0.0,2.0,66,0.00,15:55,,0.00,WeatherDisplay:WD co,2013-06-15 12:55:00,
2013-06-15 16:00:00,89.1,77.1,28.06,NNE,25,1.0,3.0,68,0.00,16:00,,0.00,WeatherDisplay:WD co,2013-06-15 13:00:00,
2013-06-15 16:05:00,89.1,77.1,28.06,NNE,25,1.0,3.0,68,0.00,16:00,,0.00,WeatherDisplay:WD co,2013-06-15 13:05:00,
2013-06-15 16:10:00,87.6,75.7,28.06,ENE,61,0.0,3.0,68,0.00,16:10,,0.00,WeatherDisplay:WD co,2013-06-15 13:10:00,
2013-06-15 16:15:00,86.9,75.1,28.07,NE,45,1.0,4.0,68,0.00,16:15,,0.00,WeatherDisplay:WD co,2013-06-15 13:15:00,
2013-06-15 16:20:00,87.1,75.7,28.06,NE,44,0.0,4.0,69,0.00,16:20,,0.00,WeatherDisplay:WD co,2013-06-15 13:20:00,
2013-06-15 16:25:00,86.9,75.1,28.06,NE,55,1.0,4.0,68,0.00,16:25,,0.00,WeatherDisplay:WD co,2013-06-15 13:25:00,
2013-06-15 16:30:00,85.5,74.1,28.06,ENE,68,1.0,4.0,69,0.00,16:30,,0.00,WeatherDisplay:WD co,2013-06-15 13:30:00,
2013-06-15 16:35:00,84.9,74.0,28.06,ESE,119,1.0,2.0,70,0.00,16:35,,0.00,WeatherDisplay:WD co,2013-06-15 13:35:00,
2013-06-15 16:40:00,83.8,73.8,28.07,East,94,1.0,4.0,72,0.00,16:40,,0.00,WeatherDisplay:WD co,2013-06-15 13:40:00,
2013-06-15 16:45:00,83.8,73.8,28.07,East,94,1.0,4.0,72,0.00,16:40,,0.00,WeatherDisplay:WD co,2013-06-15 13:45:00,
2013-06-15 16:50:00,82.6,73.4,28.06,NE,51,1.0,4.0,74,0.00,16:50,,0.00,WeatherDisplay:WD co,2013-06-15 13:50:00,
2013-06-15 16:55:00,84.2,75.0,28.06,South,175,0.0,3.0,74,0.00,16:55,,0.00,WeatherDisplay:WD co,2013-06-15 13:55:00,
2013-06-15 17:00:00,84.0,75.2,28.06,ENE,59,1.0,4.0,75,0.00,17:00,,0.00,WeatherDisplay:WD co,2013-06-15 14:00:00,
2013-06-15 17:05:00,84.4,75.6,28.06,NNE,30,2.0,5.0,75,0.00,17:05,,0.00,WeatherDisplay:WD co,2013-06-15 14:05:00,
2013-06-15 17:10:00,84.4,76.0,28.06,NNE,23,1.0,4.0,76,0.00,17:10,,0.00,WeatherDisplay:WD co,2013-06-15 14:10:00,
2013-06-15 17:15:00,85.3,75.6,28.06,ENE,65,3.0,7.0,73,0.00,17:15,,0.00,WeatherDisplay:WD co,2013-06-15 14:15:00,
2013-06-15 17:20:00,85.5,76.2,28.06,NE,52,1.0,6.0,74,0.00,17:20,,0.00,WeatherDisplay:WD co,2013-06-15 14:20:00,
2013-06-15 17:25:00,85.5,76.2,28.06,NE,52,1.0,6.0,74,0.00,17:20,,0.00,WeatherDisplay:WD co,2013-06-15 14:25:00,
2013-06-15 17:30:00,86.9,78.0,28.06,NE,42,2.0,6.0,75,0.00,17:30,,0.00,WeatherDisplay:WD co,2013-06-15 14:30:00,
2013-06-15 17:35:00,86.7,78.2,28.06,North,357,1.0,2.0,76,0.00,17:35,,0.00,WeatherDisplay:WD co,2013-06-15 14:35:00,
2013-06-15 17:40:00,87.1,78.6,28.06,NNE,23,1.0,4.0,76,0.00,17:40,,0.00,WeatherDisplay:WD co,2013-06-15 14:40:00,
2013-06-15 17:45:00,87.1,78.6,28.06,NNE,23,1.0,4.0,76,0.00,17:40,,0.00,WeatherDisplay:WD co,2013-06-15 14:45:00,
2013-06-15 17:50:00,86.7,77.8,28.06,NE,38,1.0,4.0,75,0.00,17:50,,0.00,WeatherDisplay:WD co,2013-06-15 14:50:00,
2013-06-15 17:55:00,86.7,77.8,28.06,NE,38,1.0,4.0,75,0.00,17:50,,0.00,WeatherDisplay:WD co,2013-06-15 14:55:00,
2013-06-15 18:25:00,84.9,76.1,28.06,NE,34,1.0,5.0,75,0.00,18:25,,0.00,WeatherDisplay:WD co,2013-06-15 15:25:00,
2013-06-15 18:30:00,84.4,75.6,28.06,NE,41,0.0,5.0,75,0.00,18:30,,0.00,WeatherDisplay:WD co,2013-06-15 15:30:00,
2013-06-15 18:35:00,84.6,75.8,28.06,NE,36,0.0,0.0,75,0.00,18:35,,0.00,WeatherDisplay:WD co,2013-06-15 15:35:00,
2013-06-15 18:40:00,85.1,76.3,28.06,NE,40,0.0,4.0,75,0.00,18:40,,0.00,WeatherDisplay:WD co,2013-06-15 15:40:00,
2013-06-15 18:45:00,85.1,76.7,28.07,ENE,57,0.0,4.0,76,0.00,18:45,,0.00,WeatherDisplay:WD co,2013-06-15 15:45:00,
2013-06-15 18:50:00,84.9,76.9,28.07,NE,52,0.0,4.0,77,0.00,18:50,,0.00,WeatherDisplay:WD co,2013-06-15 15:50:00,
2013-06-15 18:55:00,84.9,76.9,28.07,NE,52,0.0,4.0,77,0.00,18:50,,0.00,WeatherDisplay:WD co,2013-06-15 15:55:00,
2013-06-15 19:15:00,80.2,75.0,28.07,NE,48,0.0,4.0,84,0.00,19:15,,0.00,WeatherDisplay:WD co,2013-06-15 16:15:00,
2013-06-15 19:20:00,79.9,74.6,28.07,ENE,69,1.0,4.0,84,0.00,19:20,,0.00,WeatherDisplay:WD co,2013-06-15 16:20:00,
2013-06-15 19:25:00,79.5,73.9,28.07,ENE,57,1.0,4.0,83,0.00,19:25,,0.00,WeatherDisplay:WD co,2013-06-15 16:25:00,
2013-06-15 19:35:00,79.2,73.5,28.07,NNE,23,1.0,4.0,83,0.00,19:30,,0.00,WeatherDisplay:WD co,2013-06-15 16:35:00,
2013-06-15 19:40:00,78.8,73.2,28.07,NNE,23,1.0,3.0,83,0.00,19:40,,0.00,WeatherDisplay:WD co,2013-06-15 16:40:00,
2013-06-15 19:50:00,78.8,73.2,28.07,NE,50,0.0,3.0,83,0.00,19:50,,0.00,WeatherDisplay:WD co,2013-06-15 16:50:00,
2013-06-15 19:55:00,78.4,72.8,28.08,NE,50,1.0,4.0,83,0.00,19:55,,0.00,WeatherDisplay:WD co,2013-06-15 16:55:00,
2013-06-15 20:00:00,78.4,72.8,28.08,NE,50,1.0,4.0,83,0.00,19:55,,0.00,WeatherDisplay:WD co,2013-06-15 17:00:00,
2013-06-15 20:15:00,78.3,73.0,28.08,ENE,68,0.0,4.0,84,0.00,20:15,,0.00,WeatherDisplay:WD co,2013-06-15 17:15:00,
2013-06-15 20:20:00,78.1,72.8,28.07,North,360,0.0,3.0,84,0.00,20:20,,0.00,WeatherDisplay:WD co,2013-06-15 17:20:00,
2013-06-15 20:25:00,77.9,73.0,28.08,North,358,0.0,2.0,85,0.00,20:25,,0.00,WeatherDisplay:WD co,2013-06-15 17:25:00,
2013-06-15 20:30:00,77.7,73.2,28.07,ENE,60,0.0,2.0,86,0.00,20:30,,0.00,WeatherDisplay:WD co,2013-06-15 17:30:00,
2013-06-15 20:35:00,77.7,73.2,28.07,ENE,60,0.0,2.0,86,0.00,20:30,,0.00,WeatherDisplay:WD co,2013-06-15 17:35:00,
2013-06-15 20:55:00,76.8,72.7,28.08,NNE,27,0.0,0.0,87,0.00,20:55,,0.00,WeatherDisplay:WD co,2013-06-15 17:55:00,
2013-06-15 21:00:00,76.8,72.7,28.08,NNE,27,0.0,0.0,87,0.00,20:55,,0.00,WeatherDisplay:WD co,2013-06-15 18:00:00,
2013-06-15 21:10:00,76.5,72.3,28.09,ENE,60,0.0,0.0,87,0.00,21:10,,0.00,WeatherDisplay:WD co,2013-06-15 18:10:00,
2013-06-15 21:15:00,76.5,72.3,28.09,ENE,60,0.0,0.0,87,0.00,21:10,,0.00,WeatherDisplay:WD co,2013-06-15 18:15:00,
2013-06-15 21:20:00,76.3,71.8,28.09,NNW,338,0.0,0.0,86,0.00,21:20,,0.00,WeatherDisplay:WD co,2013-06-15 18:20:00,
2013-06-15 21:25:00,76.3,71.8,28.09,NNW,338,0.0,0.0,86,0.00,21:20,,0.00,WeatherDisplay:WD co,2013-06-15 18:25:00,
2013-06-15 21:30:00,76.1,71.6,28.09,NNE,22,0.0,0.0,86,0.00,21:30,,0.00,WeatherDisplay:WD co,2013-06-15 18:30:00,
2013-06-15 21:35:00,75.9,71.4,28.09,NNE,32,0.0,0.0,86,0.00,21:35,,0.00,WeatherDisplay:WD co,2013-06-15 18:35:00,
2013-06-15 21:40:00,75.9,71.8,28.09,North,9,0.0,0.0,87,0.00,21:40,,0.00,WeatherDisplay:WD co,2013-06-15 18:40:00,
2013-06-15 21:50:00,75.7,71.6,28.10,WSW,243,0.0,0.0,87,0.00,21:50,,0.00,WeatherDisplay:WD co,2013-06-15 18:50:00,
2013-06-15 22:00:00,75.6,71.4,28.09,SW,225,0.0,0.0,87,0.00,22:00,,0.00,WeatherDisplay:WD co,2013-06-15 19:00:00,
2013-06-15 22:10:00,75.4,71.2,28.10,WNW,292,0.0,0.0,87,0.00,22:10,,0.00,WeatherDisplay:WD co,2013-06-15 19:10:00,
2013-06-15 22:15:00,75.4,71.2,28.10,NNE,26,0.0,0.0,87,0.00,22:15,,0.00,WeatherDisplay:WD co,2013-06-15 19:15:00,
2013-06-15 22:25:00,75.0,70.9,28.10,NE,45,0.0,0.0,87,0.00,22:25,,0.00,WeatherDisplay:WD co,2013-06-15 19:25:00,
2013-06-15 22:30:00,74.7,70.2,28.10,NE,45,0.0,0.0,86,0.00,22:30,,0.00,WeatherDisplay:WD co,2013-06-15 19:30:00,
2013-06-15 22:35:00,74.7,70.2,28.10,NE,45,0.0,0.0,86,0.00,22:30,,0.00,WeatherDisplay:WD co,2013-06-15 19:35:00,
2013-06-15 22:40:00,74.7,70.2,28.10,NE,41,0.0,0.0,86,0.00,22:35,,0.00,WeatherDisplay:WD co,2013-06-15 19:40:00,
2013-06-15 22:55:00,74.3,69.5,28.10,NE,41,0.0,0.0,85,0.00,22:55,,0.00,WeatherDisplay:WD co,2013-06-15 19:55:00,
2013-06-15 23:00:00,74.5,69.7,28.10,NE,45,0.0,0.0,85,0.00,23:00,,0.00,WeatherDisplay:WD co,2013-06-15 20:00:00,
2013-06-15 23:05:00,74.1,69.0,28.10,NE,45,0.0,0.0,84,0.00,23:05,,0.00,WeatherDisplay:WD co,2013-06-15 20:05:00,
2013-06-15 23:10:00,74.7,69.2,28.10,NE,45,0.0,0.0,83,0.00,23:10,,0.00,WeatherDisplay:WD co,2013-06-15 20:10:00,
2013-06-15 23:20:00,74.5,69.0,28.10,NE,45,0.0,0.0,83,0.00,23:20,,0.00,WeatherDisplay:WD co,2013-06-15 20:20:00,
2013-06-15 23:25:00,74.5,68.6,28.10,NE,45,0.0,0.0,82,0.00,23:25,,0.00,WeatherDisplay:WD co,2013-06-15 20:25:00,
2013-06-15 23:30:00,74.5,68.6,28.10,NE,45,0.0,0.0,82,0.00,23:30,,0.00,WeatherDisplay:WD co,2013-06-15 20:30:00,
2013-06-15 23:35:00,74.5,68.6,28.10,NE,45,0.0,0.0,82,0.00,23:30,,0.00,WeatherDisplay:WD co,2013-06-15 20:35:00,